Regional Weather Roundup
Issued by NWS

Home | Current Version | Previous Version | Graphics & Text | Print | Product List | Glossary On
Versions: 1 2 3 4 5 6 7 8 9 10 11 12 13 14 15 16 17 18 19 20 21 22 23 24 25 26 27 28 29 30 31 32 33 34 35 36 37 38 39 40 41 42 43 44 45 46 47 48 49 50
837
ASUS43 KLSX 291210
RWRMO

WEATHER SUMMARY FOR MISSOURI
NATIONAL WEATHER SERVICE SPRINGFIELD MO
700 AM CDT FRI JUL 29 2016

NOTE: "FAIR" INDICATES FEW OR NO CLOUDS BELOW 12,000 FEET WITH NO
       SIGNIFICANT WEATHER AND/OR OBSTRUCTIONS TO VISIBILITY.
       CURRENT SKY AND/OR WEATHER CONDITIONS ARE NOT AVAILABLE FOR
       CHILLICOTHE AND FARMINGTON.

MOZ001>031-035>038-043-044-053-054-291300-
...NORTHERN AND WESTERN MISSOURI...

CITY           SKY/WX    TMP DP  RH WIND       PRES   REMARKS
KANSAS CTY INT CLOUDY    69  63  81 N5        30.01R
6HR MIN TEMP:  68; 6HR MAX TEMP:  76;

KANSAS C DTWN  CLOUDY    72  64  76 NE6       29.99R
6HR MIN TEMP:  71; 6HR MAX TEMP:  79;

LEE`S SUMMIT   PTCLDY    70  66  87 N7        30.01R
6HR MIN TEMP:  69; 6HR MAX TEMP:  74;

ST JOSEPH      MOCLDY    68  65  90 N3        30.01R
6HR MIN TEMP:  66; 6HR MAX TEMP:  74;

CHILLICOTHE      N/A     68  65  90 CALM      30.00R
6HR MIN TEMP:  67; 6HR MAX TEMP:  71;

KIRKSVILLE     CLEAR     66  63  90 N3        29.98R
6HR MIN TEMP:  64; 6HR MAX TEMP:  67;


$$
MOZ066>068-077>081-088>096-101>105-291300-
...SOUTHWEST MISSOURI...

CITY           SKY/WX    TMP DP  RH WIND       PRES   REMARKS
SPRINGFIELD    MOCLDY    71  68  90 CALM      29.99R
6HR MIN TEMP:  71; 6HR MAX TEMP:  73;

JOPLIN         CLOUDY    68  66  93 CALM      29.99R
6HR MIN TEMP:  67; 6HR MAX TEMP:  76;

BRANSON        PTCLDY    70  70 100 CALM      30.00R

$$
MOZ032>034-039>042-045>050-055>058-069>072-291300-
...CENTRAL MISSOURI...

CITY           SKY/WX    TMP DP  RH WIND       PRES   REMARKS
COLUMBIA       CLOUDY    70  68  93 CALM      29.98R
6HR MIN TEMP:  69; 6HR MAX TEMP:  72;

JEFFERSON CITY CLOUDY    71  69  93 CALM      29.96R
6HR MIN TEMP:  70; 6HR MAX TEMP:  72;

ROLLA          PTCLDY    68  67  96 CALM      29.97R
6HR MIN TEMP:  66; 6HR MAX TEMP:  70;

SEDALIA        MOCLDY    73  70  90 NE3       29.99R
6HR MIN TEMP:  72; 6HR MAX TEMP:  76; 6HR PCP:  0.01;

WHITEMAN AFB   MOCLDY    70  70 100 N3        29.98R
OSAGE BEACH    CLOUDY    70  69  97 CALM      29.98R

$$
MOZ051-052-059>065-291300-
...EAST CENTRAL MISSOURI...

CITY           SKY/WX    TMP DP  RH WIND       PRES   REMARKS
ST LOUIS INTL  MOSUNNY   75  67  76 E3        29.93R
6HR MIN TEMP:  73; 6HR MAX TEMP:  78;

SPIRIT OF STL  PTCLDY    72  70  93 CALM      29.93R
6HR MIN TEMP:  70; 6HR MAX TEMP:  76;

ST CHARLES     SUNNY     71  70  96 CALM      29.93R
6HR MIN TEMP:  70; 6HR MAX TEMP:  76;


$$
MOZ072>076-082>087-097>100-106>115-291300-
...SOUTH CENTRAL AND SOUTHEAST MISSOURI...

CITY           SKY/WX    TMP DP  RH WIND       PRES   REMARKS
CAPE GIRARDEAU CLOUDY    72  71  97 W5        29.92R
6HR MIN TEMP:  71; 6HR MAX TEMP:  74;

FARMINGTON     MOCLDY    72  70  94 CALM      29.95R
6HR MIN TEMP:  70; 6HR MAX TEMP:  73;

POPLAR BLUFF   CLEAR     71  69  93 CALM      29.93R
6HR MIN TEMP:  71; 6HR MAX TEMP:  73;

WEST PLAINS    CLEAR     69  65  86 CALM      30.00R
6HR MIN TEMP:  67; 6HR MAX TEMP:  69;


$$




USA.gov is the U.S. government's official web portal to all federal, state and local government web resources and services.